Flag for Antigua and Barbuda Weather past 2 weeks in Saint John's, Antigua and Barbuda

Now
84 °F

Passing clouds.


Feels Like: 87 °F
Forecast: 77 / 84 °F
Wind: 12 mph from Southeast

Location: Vc Bird International Antigua Airport


UV Index: 10 (Very high)

Visibility: N/A


Pressure: 29.95 "Hg

Humidity: 58%

Dew point: 68 °F

Location of Saint John'sLocation

Historic Weather in Saint John's

°F

Saint John's temperature yesterday

Maximum temperature yesterday: 84 °F (at 11:00 AM)
Minimum temperature yesterday: 75 °F (at 5:00 AM)
Average temperature yesterday: 80 °F

Past Weeks' High & Low Weather Summary

 TemperatureHumidityPressure
High84 °F (Apr 10, 11:00 AM)94% (Apr 13, 3:00 AM)30.12 "Hg (Apr 13, 3:00 AM)
Low70 °F (Apr 13, 3:00 AM)51% (Apr 17, 6:00 PM)29.89 "Hg (Apr 15, 3:00 PM)
Average79 °F73%30.00 "Hg
* Reported Apr 9 2:00 PM — Apr 24 2:00 PM, Saint John's, Weather by CustomWeather, © 2014

Note: Actual official high and low records may vary slightly from our data, if they occured in-between our weather recording intervals... More about our weather records

Advertising

Historic Weather Conditions — Data for Previous 24 hours

 ConditionsComfort  
Time TempWeatherWind HumidityBarometerVisibility
2:00 PM
Apr 24
84 °FPassing clouds.9 mph66%29.98 "HgN/A
1:00 PM84 °FScattered clouds.10 mph62%29.98 "HgN/A
12:00 PM84 °FPartly sunny.10 mph66%30.01 "HgN/A
11:00 AM84 °FPartly sunny.10 mph66%30.04 "HgN/A
10:00 AM84 °FPartly sunny.10 mph62%30.04 "HgN/A
9:00 AM82 °FPartly sunny.10 mph66%30.04 "HgN/A
8:00 AM81 °FPartly sunny.7 mph74%30.01 "HgN/A
7:00 AM79 °FBroken clouds.5 mph79%30.01 "HgN/A
6:00 AM77 °FScattered clouds.3 mph83%30.01 "HgN/A
5:00 AM77 °FPassing clouds.5 mph83%30.01 "HgN/A
4:00 AM77 °FPassing clouds.3 mph83%29.98 "HgN/A
3:00 AM77 °FPassing clouds.2 mph83%29.98 "HgN/A
2:00 AM77 °FPassing clouds.5 mph83%29.98 "HgN/A
1:00 AM79 °FPassing clouds.5 mph79%29.98 "HgN/A
12:00 AM79 °FPassing clouds.3 mph79%30.01 "HgN/A
11:00 PM
Apr 23
79 °FPassing clouds.6 mph84%30.01 "HgN/A
10:00 PM79 °FPassing clouds.6 mph79%30.01 "HgN/A
9:00 PM79 °FPassing clouds.6 mph84%29.98 "HgN/A
8:00 PM79 °FPassing clouds.3 mph79%29.98 "HgN/A
7:00 PM79 °FPassing clouds.5 mph79%29.95 "HgN/A
6:00 PM81 °FBroken clouds.6 mph74%29.95 "HgN/A
5:00 PM81 °FBroken clouds.8 mph74%29.95 "HgN/A
4:00 PM82 °FPartly sunny.7 mph70%29.92 "HgN/A
3:00 PM84 °FPartly sunny.9 mph66%29.95 "HgN/A
Weather by CustomWeather, © 2014

See weather overview